GW1943 Weather Reports


time (UTC)temp
F
wind
direction
speed
knots
gust
knots
rain 1hr
in
rain 24hr
in
rain mn
in
humidity
%
barometer
mb
20260510145512 53 216 0.9 1.7 0.00 0.00 0.00 95 1019.2
20260510145008 53 209 0.0 2.6 0.00 0.00 0.00 96 1019.0
20260510144506 53 210 0.0 0.0 0.00 0.00 0.00 97 1019.3
20260510144002 52 212 0.0 0.0 0.00 0.00 0.00 98 1019.2
20260510143457 52 213 0.0 0.0 0.00 0.00 0.00 99 1019.2
20260510142954 52 212 0.0 0.0 0.00 0.00 0.00 99 1019.0
20260510142450 52 212 0.0 0.0 0.00 0.00 0.00 99 1019.3
20260510141947 52 212 0.0 0.0 0.00 0.00 0.00 99 1019.0
20260510141444 52 213 0.0 0.0 0.00 0.00 0.00 99 1018.6
20260510140941 51 216 0.0 0.0 0.00 0.00 0.00 99 1018.4
20260510140437 51 212 0.0 0.0 0.00 0.00 0.00 99 1018.1
20260510135936 51 199 0.0 0.0 0.00 0.00 0.00 99 1017.9
20260510135432 51 199 0.0 0.0 0.00 0.00 0.00 99 1017.8
20260510134930 51 198 0.0 0.9 0.00 0.00 0.00 99 1018.2
20260510134426 50 197 0.0 0.9 0.00 0.00 0.00 99 1018.4
20260510133922 50 201 0.0 0.0 0.00 0.00 0.00 99 1018.5
20260510133419 50 200 0.0 0.0 0.00 0.00 0.00 99 1018.6
20260510132914 50 200 0.0 0.0 0.00 0.00 0.00 99 1018.5
20260510132412 49 200 0.0 0.0 0.00 0.00 0.00 99 1018.4
20260510131909 49 200 0.0 0.0 0.00 0.00 0.00 99 1018.7
20260510131406 49 200 0.0 0.0 0.00 0.00 0.00 99 1018.9
20260510130903 49 200 0.0 0.0 0.00 0.00 0.00 99 1018.9
20260510130400 49 200 0.0 0.0 0.00 0.00 0.00 99 1018.8
20260510125857 49 200 0.0 0.0 0.00 0.00 0.00 99 1019.0
20260510125353 48 200 0.0 0.0 0.00 0.00 0.00 99 1018.8
20260510124850 48 200 0.0 0.0 0.00 0.00 0.00 99 1018.8
20260510124347 48 200 0.0 0.0 0.00 0.00 0.00 99 1018.9
20260510123842 48 200 0.0 0.0 0.00 0.00 0.00 99 1018.8
20260510123338 49 200 0.0 0.0 0.00 0.00 0.00 99 1019.1
20260510122835 49 200 0.0 0.0 0.00 0.00 0.00 99 1018.7
20260510122330 49 200 0.0 0.0 0.00 0.00 0.00 99 1018.7
20260510121827 49 200 0.0 0.0 0.00 0.00 0.00 99 1018.6
20260510121325 48 200 0.0 0.0 0.00 0.00 0.00 99 1018.5
20260510120822 48 200 0.0 0.0 0.00 0.00 0.00 99 1018.6
20260510120319 48 200 0.0 0.0 0.00 0.00 0.00 99 1018.7
20260510115814 49 200 0.0 0.0 0.00 0.00 0.00 99 1018.3
20260510115312 49 200 0.0 0.0 0.00 0.00 0.00 99 1018.4
20260510114807 49 200 0.0 0.0 0.00 0.00 0.00 99 1018.3
20260510114305 49 200 0.0 0.0 0.00 0.00 0.00 99 1018.5
20260510113805 49 200 0.0 0.0 0.00 0.00 0.00 99 1018.6
20260510113302 49 200 0.0 0.0 0.00 0.00 0.00 99 1018.6
20260510112758 49 200 0.0 0.0 0.00 0.00 0.00 99 1018.5
20260510112256 50 200 0.0 0.0 0.00 0.00 0.00 99 1018.4
20260510111751 50 200 0.0 0.0 0.00 0.00 0.00 99 1018.3
20260510111248 50 200 0.0 0.0 0.00 0.00 0.00 99 1018.4
20260510110748 50 200 0.0 0.0 0.00 0.00 0.00 99 1018.5
20260510110246 50 200 0.0 0.0 0.00 0.00 0.00 99 1018.2
20260510105746 50 200 0.0 0.0 0.00 0.00 0.00 99 1018.2
20260510105241 50 200 0.0 0.0 0.00 0.00 0.00 99 1017.9
20260510104738 50 200 0.0 0.0 0.00 0.00 0.00 98 1018.0
20260510104236 50 200 0.0 0.0 0.00 0.00 0.00 98 1017.9
20260510103732 50 200 0.0 0.0 0.00 0.00 0.00 98 1018.4
20260510103229 50 200 0.0 0.0 0.00 0.00 0.00 98 1018.0
20260510102728 50 200 0.0 0.0 0.00 0.00 0.00 98 1017.9
20260510102224 50 200 0.0 0.0 0.00 0.00 0.00 98 1018.0
20260510101722 50 200 0.0 0.0 0.00 0.00 0.00 98 1017.9
20260510101220 50 200 0.0 0.0 0.00 0.00 0.00 98 1018.0
20260510100716 51 200 0.0 0.0 0.00 0.00 0.00 98 1017.9
20260510100215 51 200 0.0 0.0 0.00 0.00 0.00 98 1017.7
20260510095709 51 200 0.0 0.0 0.00 0.00 0.00 97 1017.8
20260510095205 51 200 0.0 0.0 0.00 0.00 0.00 97 1017.6
20260510094703 51 200 0.0 0.0 0.00 0.00 0.00 97 1017.8
20260510094159 50 200 0.0 0.0 0.00 0.00 0.00 97 1017.6
20260510093655 50 200 0.0 0.0 0.00 0.00 0.00 97 1017.6
20260510093153 50 200 0.0 0.0 0.00 0.00 0.00 97 1017.4
20260510092649 50 200 0.0 0.0 0.00 0.00 0.00 97 1017.4
20260510092144 51 200 0.0 0.0 0.00 0.00 0.00 97 1017.4
20260510091640 51 200 0.0 0.0 0.00 0.00 0.00 96 1017.3
20260510091137 51 200 0.0 0.0 0.00 0.00 0.00 96 1017.3
20260510090634 51 200 0.0 0.0 0.00 0.00 0.00 96 1017.4
20260510090130 51 200 0.0 0.0 0.00 0.00 0.00 96 1017.5
20260510085625 51 200 0.0 0.0 0.00 0.00 0.00 96 1017.4
20260510085121 51 200 0.0 0.0 0.00 0.00 0.00 95 1017.5
20260510084612 51 200 0.0 0.0 0.00 0.00 0.00 95 1017.4
20260510084109 51 200 0.0 0.0 0.00 0.00 0.00 95 1017.3
20260510083606 52 200 0.0 0.0 0.00 0.00 0.00 95 1017.4
20260510083101 52 200 0.0 0.0 0.00 0.00 0.00 95 1017.3
20260510082559 52 200 0.0 0.0 0.00 0.00 0.00 95 1017.3
20260510082054 52 200 0.0 0.0 0.00 0.00 0.00 95 1017.3
20260510081549 52 200 0.0 0.0 0.00 0.00 0.00 95 1017.3
20260510081045 51 200 0.0 0.0 0.00 0.00 0.00 94 1017.2
20260510080544 51 200 0.0 0.0 0.00 0.00 0.00 94 1017.3
20260510080042 52 200 0.0 0.0 0.00 0.00 0.00 94 1017.1
20260510075539 52 200 0.0 0.0 0.00 0.00 0.00 94 1017.6
20260510075036 52 200 0.0 0.0 0.00 0.00 0.00 94 1017.6
20260510074533 52 200 0.0 0.0 0.00 0.00 0.00 93 1017.4
20260510074028 52 200 0.0 0.0 0.00 0.00 0.00 93 1017.4
20260510073524 52 200 0.0 0.0 0.00 0.00 0.00 93 1017.5
20260510073022 53 200 0.0 0.0 0.00 0.00 0.00 92 1017.4
20260510072518 53 200 0.0 0.0 0.00 0.00 0.00 92 1017.5
20260510072014 53 200 0.0 0.0 0.00 0.00 0.00 91 1017.2
20260510071510 53 200 0.0 0.0 0.00 0.00 0.00 91 1017.3
20260510071009 53 200 0.0 0.0 0.00 0.00 0.00 91 1017.2
20260510070505 54 200 0.0 0.0 0.00 0.00 0.00 91 1017.2
20260510070002 54 200 0.0 0.0 0.00 0.00 0.00 90 1017.2
20260510065458 54 200 0.0 0.0 0.00 0.00 0.00 90 1017.1
20260510064954 54 200 0.0 0.0 0.00 0.00 0.00 90 1017.2
20260510064451 54 200 0.0 0.0 0.00 0.00 0.00 89 1017.5
20260510063948 55 200 0.0 0.0 0.00 0.00 0.00 89 1017.5
20260510063444 55 200 0.0 0.0 0.00 0.00 0.00 88 1017.3
20260510062942 55 200 0.0 0.0 0.00 0.00 0.00 89 1017.6
20260510062437 55 200 0.0 0.0 0.00 0.00 0.00 89 1017.4
20260510061932 55 200 0.0 0.0 0.00 0.00 0.00 89 1017.4
20260510061430 55 200 0.0 0.0 0.00 0.00 0.00 88 1017.3
20260510060925 55 200 0.0 0.0 0.00 0.00 0.00 87 1017.3
20260510060423 56 200 0.0 0.0 0.00 0.00 0.00 87 1017.2
20260510055918 56 200 0.0 0.0 0.00 0.00 0.00 87 1017.3
20260510055414 56 201 0.0 0.0 0.00 0.00 0.00 87 1017.1
20260510054907 56 201 0.0 0.0 0.00 0.00 0.00 86 1017.1
20260510054402 56 200 0.0 0.0 0.00 0.00 0.00 86 1017.1
20260510053857 57 201 0.0 0.0 0.00 0.00 0.00 85 1017.4
20260510053353 57 200 0.0 0.0 0.00 0.00 0.00 85 1017.2
20260510052850 57 200 0.0 0.0 0.00 0.00 0.00 84 1017.2
20260510052346 57 200 0.0 0.0 0.00 0.00 0.00 84 1017.4
20260510051842 57 200 0.0 0.0 0.00 0.00 0.00 84 1017.1
20260510051339 57 201 0.0 0.0 0.00 0.00 0.00 84 1017.3
20260510050835 57 201 0.0 0.0 0.00 0.00 0.00 84 1017.4
20260510050332 58 201 0.0 0.0 0.00 0.00 0.00 83 1017.2
20260510045829 58 201 0.0 0.0 0.00 0.00 0.00 82 1017.3
20260510045325 58 200 0.0 0.0 0.00 0.00 0.00 82 1017.4
20260510044822 58 201 0.0 0.0 0.00 0.00 0.00 82 1017.1
20260510044319 58 201 0.0 0.0 0.00 0.00 0.00 82 1017.1
20260510043816 58 201 0.0 0.0 0.00 0.00 0.00 82 1017.1
20260510043312 58 200 0.0 0.9 0.00 0.00 0.00 82 1017.3
20260510042809 58 201 0.0 0.0 0.00 0.00 0.00 82 1017.3
20260510042306 58 201 0.0 0.0 0.00 0.00 0.00 82 1017.3
20260510041801 58 201 0.0 0.0 0.00 0.00 0.00 82 1017.1
20260510041259 58 201 0.0 0.0 0.00 0.00 0.00 81 1017.0
20260510040756 59 201 0.0 0.0 0.00 0.00 0.00 80 1017.1
20260510040248 59 201 0.0 0.0 0.00 0.00 0.00 80 1017.1
20260510035744 59 201 0.0 0.0 0.00 0.00 0.00 79 1016.9
20260510035239 60 201 0.0 0.0 0.00 0.00 0.00 78 1017.0
20260510034734 60 201 0.0 0.0 0.00 0.00 0.00 77 1016.9
20260510034232 61 201 0.0 0.0 0.00 0.00 0.00 75 1017.1
20260510033729 62 193 0.0 0.0 0.00 0.00 0.00 75 1017.3
20260510033226 61 193 0.0 0.9 0.00 0.00 0.00 74 1017.0
20260510032722 62 194 0.0 0.0 0.00 0.00 0.00 73 1017.1
20260510032218 62 194 0.0 0.0 0.00 0.00 0.00 73 1017.1
20260510031713 63 195 0.0 0.0 0.00 0.00 0.00 73 1017.1
20260510031210 63 195 0.0 0.0 0.00 0.00 0.00 71 1017.1
20260510030709 63 195 0.0 0.0 0.00 0.00 0.00 71 1017.3
20260510030207 64 195 0.0 0.0 0.00 0.00 0.00 70 1017.4
20260510025704 64 195 0.0 0.0 0.00 0.00 0.00 69 1017.4
20260510025201 64 195 0.0 0.9 0.00 0.00 0.00 67 1017.3
20260510024659 65 208 0.0 0.0 0.00 0.00 0.00 67 1017.4
20260510024155 65 208 0.0 0.0 0.00 0.00 0.00 65 1017.4
20260510023650 66 208 0.0 0.0 0.00 0.00 0.00 64 1017.7
20260510023149 66 201 0.0 0.0 0.00 0.00 0.00 64 1017.5
20260510022649 67 201 0.0 0.0 0.00 0.00 0.00 62 1017.5
20260510022138 67 195 0.0 0.9 0.00 0.00 0.00 60 1017.4
20260510021634 69 209 0.0 0.9 0.00 0.00 0.00 57 1017.5
20260510021132 70 219 0.0 0.0 0.00 0.00 0.00 57 1017.4
20260510020626 70 195 0.9 0.9 0.00 0.00 0.00 53 1017.6
20260510020121 69 215 0.0 0.0 0.00 0.00 0.00 56 1017.6
20260510015617 68 208 0.0 0.0 0.00 0.00 0.00 62 1017.7
20260510015114 69 220 0.0 0.0 0.00 0.00 0.00 56 1018.0
20260510014609 69 194 0.0 0.9 0.00 0.00 0.00 56 1018.0
20260510014107 69 203 0.0 0.0 0.00 0.00 0.00 59 1018.2
20260510013601 69 194 0.0 0.0 0.00 0.00 0.00 59 1018.0
20260510013057 68 219 0.0 0.0 0.00 0.00 0.00 59 1018.1
20260510012551 69 222 0.0 0.0 0.00 0.00 0.00 55 1018.3
20260510012048 69 196 0.0 0.9 0.00 0.00 0.00 55 1018.4
20260510011548 68 223 0.0 0.9 0.00 0.00 0.00 56 1018.2
20260510011044 69 223 0.0 0.0 0.00 0.00 0.00 58 1018.2
20260510010541 69 225 0.0 0.0 0.00 0.00 0.00 58 1018.2
20260510010038 69 210 0.0 2.6 0.00 0.00 0.00 61 1018.3
20260510005533 68 184 0.9 1.7 0.00 0.00 0.00 57 1018.3
20260510005031 68 208 0.0 0.0 0.00 0.00 0.00 59 1018.4
20260510004529 68 195 0.9 1.7 0.00 0.00 0.00 58 1018.7
20260510004027 68 192 0.9 0.9 0.00 0.00 0.00 57 1018.7
20260510003523 69 213 0.9 0.9 0.00 0.00 0.00 56 1018.6
20260510003019 69 211 0.0 0.9 0.00 0.00 0.00 58 1018.8
20260510002514 69 221 0.0 0.0 0.00 0.00 0.00 56 1018.6
20260510002011 69 93 1.7 1.7 0.00 0.00 0.00 55 1018.8
20260510001509 68 199 0.0 1.7 0.00 0.00 0.00 55 1018.8
20260510001006 68 197 0.9 2.6 0.00 0.00 0.00 57 1018.7
20260510000501 69 245 0.9 0.9 0.00 0.00 0.00 55 1019.1
20260509235958 68 191 0.9 1.7 0.00 0.00 0.00 57 1018.8
20260509235455 69 190 1.7 2.6 0.00 0.00 0.00 54 1019.0
20260509234951 70 213 0.9 0.9 0.00 0.00 0.00 53 1019.1
20260509234448 69 196 0.0 1.7 0.00 0.00 0.00 54 1019.0
20260509233946 71 124 1.7 2.6 0.00 0.00 0.00 51 1019.0
20260509233443 70 211 0.0 0.9 0.00 0.00 0.00 53 1019.3
20260509232939 70 126 0.9 1.7 0.00 0.00 0.00 53 1019.4
20260509232438 72 52 1.7 2.6 0.00 0.00 0.00 50 1019.3
20260509231933 71 179 0.9 1.7 0.00 0.00 0.00 52 1019.2
20260509231430 71 215 0.0 0.9 0.00 0.00 0.00 52 1019.3
20260509230928 71 219 0.0 0.9 0.00 0.00 0.00 54 1019.4
20260509230424 71 213 0.9 1.7 0.00 0.00 0.00 52 1019.6
20260509225920 70 214 0.0 1.7 0.00 0.00 0.00 55 1019.4
20260509225417 70 219 1.7 1.7 0.00 0.00 0.00 53 1019.8
20260509224913 71 213 0.0 1.7 0.00 0.00 0.00 56 1020.0
20260509224408 70 232 1.7 1.7 0.00 0.00 0.00 53 1019.9
20260509223906 69 213 0.0 0.9 0.00 0.00 0.00 58 1019.9
20260509223402 68 212 0.0 2.6 0.00 0.00 0.00 56 1019.9
20260509222900 69 222 0.9 1.7 0.00 0.00 0.00 54 1020.2
20260509222355 69 216 0.9 1.7 0.00 0.00 0.00 55 1020.1
20260509221850 69 229 1.7 1.7 0.00 0.00 0.00 54 1020.1
20260509221348 69 221 0.9 1.7 0.00 0.00 0.00 54 1019.8
20260509220843 69 214 0.9 2.6 0.00 0.00 0.00 57 1020.1
20260509220339 70 241 1.7 4.3 0.00 0.00 0.00 55 1020.1
20260509215835 70 219 0.0 0.9 0.00 0.00 0.00 59 1020.0
20260509215332 70 218 0.9 1.7 0.00 0.00 0.00 55 1020.1
20260509214829 70 209 0.9 1.7 0.00 0.00 0.00 58 1020.2
20260509214326 70 211 0.0 1.7 0.00 0.00 0.00 58 1020.0
20260509213823 71 210 0.0 1.7 0.00 0.00 0.00 59 1020.0
20260509213318 70 222 0.9 1.7 0.00 0.00 0.00 57 1020.1
20260509212816 70 214 0.0 0.9 0.00 0.00 0.00 58 1020.4
20260509212314 70 215 0.0 0.9 0.00 0.00 0.00 59 1020.2
20260509211809 69 216 0.0 1.7 0.00 0.00 0.00 58 1020.5
20260509211305 69 210 0.9 4.3 0.00 0.00 0.00 58 1020.4
20260509210802 70 228 0.9 1.7 0.00 0.00 0.00 56 1020.2
20260509210300 70 213 0.0 1.7 0.00 0.00 0.00 57 1020.1
20260509205759 69 214 0.9 1.7 0.00 0.00 0.00 57 1020.5
20260509205254 69 225 0.9 1.7 0.00 0.00 0.00 57 1020.6
20260509204750 69 213 0.0 1.7 0.00 0.00 0.00 59 1020.4
20260509204247 69 215 1.7 2.6 0.00 0.00 0.00 57 1020.6
20260509203743 69 213 0.9 1.7 0.00 0.00 0.00 58 1020.3
20260509203241 70 228 0.9 1.7 0.00 0.00 0.00 57 1020.4
20260509202736 71 241 1.7 2.6 0.00 0.00 0.00 55 1020.6
20260509202232 70 215 0.0 0.9 0.00 0.00 0.00 58 1020.6
20260509201727 70 213 0.9 1.7 0.00 0.00 0.00 60 1020.7
20260509201224 70 212 0.0 0.9 0.00 0.00 0.00 55 1020.8
20260509200720 69 184 0.9 0.9 0.00 0.00 0.00 56 1020.8
20260509200215 68 215 0.0 0.9 0.00 0.00 0.00 57 1020.8
20260509195711 67 205 0.0 0.9 0.00 0.00 0.00 58 1021.0
20260509195206 68 15 0.0 0.0 0.00 0.00 0.00 59 1021.1
20260509194701 69 216 0.0 0.9 0.00 0.00 0.00 59 1021.2
20260509194158 68 217 0.0 0.0 0.00 0.00 0.00 61 1021.4
20260509193654 67 160 2.6 4.3 0.00 0.00 0.00 58 1021.3
20260509193150 68 213 0.0 0.0 0.00 0.00 0.00 63 1021.3
20260509192646 67 200 0.0 1.7 0.00 0.00 0.00 63 1021.3
20260509192141 66 194 0.0 0.0 0.00 0.00 0.00 63 1021.5
20260509191635 65 188 0.0 1.7 0.00 0.00 0.00 62 1021.6
20260509191132 65 207 0.0 2.6 0.00 0.00 0.00 64 1021.6
20260509190629 65 206 0.9 1.7 0.00 0.00 0.00 62 1021.6
20260509190126 66 216 0.9 4.3 0.00 0.00 0.00 62 1021.8
20260509185624 66 220 0.9 1.7 0.00 0.00 0.00 66 1021.6
20260509185119 64 214 0.0 0.9 0.00 0.00 0.00 67 1021.8
20260509184618 64 214 0.0 1.7 0.00 0.00 0.00 66 1021.9
20260509184114 63 218 0.0 2.6 0.00 0.00 0.00 68 1021.8
20260509183610 64 208 0.9 1.7 0.00 0.00 0.00 65 1021.9
20260509183106 64 220 0.0 2.6 0.00 0.00 0.00 71 1021.8
20260509182602 64 225 0.9 0.9 0.00 0.00 0.00 68 1021.8
20260509182059 63 197 0.9 1.7 0.00 0.00 0.00 70 1021.9
20260509181558 62 214 0.0 1.7 0.00 0.00 0.00 73 1022.1
20260509181055 62 220 0.0 1.7 0.00 0.00 0.00 71 1021.9
20260509180550 61 217 0.9 1.7 0.00 0.00 0.00 72 1021.9
20260509180048 62 211 1.7 2.6 0.00 0.00 0.00 71 1021.9
20260509175543 61 216 0.9 1.7 0.00 0.00 0.00 73 1022.0
20260509175040 62 211 0.9 1.7 0.00 0.00 0.00 74 1021.8
20260509174537 61 220 0.0 1.7 0.00 0.00 0.00 74 1022.1
20260509174032 61 243 0.9 0.9 0.00 0.00 0.00 73 1022.2
20260509173526 61 215 0.0 1.7 0.00 0.00 0.00 74 1022.3
20260509173023 60 217 0.9 2.6 0.00 0.00 0.00 75 1022.3
20260509172520 60 211 0.0 1.7 0.00 0.00 0.00 76 1022.3
20260509172016 59 211 0.0 1.7 0.00 0.00 0.00 77 1022.1
20260509171512 59 221 0.0 1.7 0.00 0.00 0.00 78 1022.1
20260509171009 59 222 0.9 0.9 0.00 0.00 0.00 77 1022.3
20260509170504 59 224 0.9 1.7 0.00 0.00 0.00 77 1022.0
20260509170001 58 215 0.9 1.7 0.00 0.00 0.00 78 1022.3
20260509165459 57 212 0.0 1.7 0.00 0.00 0.00 78 1022.5
20260509164955 57 215 0.0 1.7 0.00 0.00 0.00 82 1022.4
20260509164451 57 217 0.0 0.9 0.00 0.00 0.00 83 1022.5
20260509163947 56 228 0.9 1.7 0.00 0.00 0.00 83 1022.5
20260509163445 56 216 0.0 0.0 0.00 0.00 0.00 85 1022.8
20260509162944 56 218 0.0 0.0 0.00 0.00 0.00 86 1022.7
20260509162443 56 215 0.0 0.0 0.00 0.00 0.00 86 1022.6
20260509161938 55 215 0.0 0.0 0.00 0.00 0.00 85 1022.7
20260509161435 55 215 0.0 0.0 0.00 0.00 0.00 85 1022.7
20260509160930 55 215 0.0 0.0 0.00 0.00 0.00 84 1022.6
20260509160426 54 215 0.0 0.0 0.00 0.00 0.00 86 1023.0
20260509155921 54 216 0.0 0.0 0.00 0.00 0.00 88 1022.8
20260509155418 53 217 0.0 0.0 0.00 0.00 0.00 90 1022.8
20260509154915 53 223 0.9 0.9 0.00 0.00 0.00 90 1023.0
20260509154411 53 219 0.0 0.0 0.00 0.00 0.00 92 1023.1
20260509153908 53 217 0.0 0.9 0.00 0.00 0.00 92 1023.0
20260509153405 52 218 0.0 0.0 0.00 0.00 0.00 93 1022.9
20260509152902 51 219 0.0 0.0 0.00 0.00 0.00 95 1022.9
20260509152358 51 217 0.0 0.0 0.00 0.00 0.00 97 1022.9
20260509151856 51 217 0.0 0.0 0.00 0.00 0.00 98 1023.0
20260509151351 50 218 0.0 0.0 0.00 0.00 0.00 99 1023.3
20260509150850 50 223 0.0 0.0 0.00 0.00 0.00 99 1023.3
20260509150347 50 215 0.0 0.0 0.00 0.00 0.00 99 1023.1
20260509145844 50 225 0.0 0.0 0.00 0.00 0.00 99 1023.2